Content
SEND FEEDBACK

Daily
Averages
Monthly
Summary
United States of America

FAYETTEVILLE, TENNESSEE


Home > North America > United States > Tennessee
Elevation: 700 feet     Latitude: 35 10N     Longitude: 086 33W

WEATHER
 
SELECT A DAY
Number of Records: 297,994;   Date Range: 4/22/02 - 7/29/14
 
SHARE

PRINT THIS DATA

[ ← Previous Day ]
WEATHER ALMANAC - OCTOBER 5, 2013
[ Next Day → ]
[ °C ]   °F
Weather ElementAverageHighLow
Temperature74.1 °F86 °F (1:35 pm)62.6 °F (5:15 am)
Dewpoint61.3 °F64.4 °F (1:15 am)59 °F (10:15 am)
Humidity67.7 %100 % (1:15 am)40 % (1:35 pm)
Barometer30.06 in30.11 in (1:55 am)29.98 in (11:35 pm)
Wind Speed3.7 mph10.4 mph (11:55 am)
Wind Gust16.1 mph (4:15 pm)
Weather ElementAverage
Visibility9.7 mi
Wind DirectionESE (97.2 °)

Weather ElementTotal
Precipitation---
Cooling Degree Days9.3 (Base 65)
Growing Degree Days24.3 (Base 50)
Averaged from 71 records on October 5, 2013
WEATHER CONDITIONS BREAKOUT
WIND DIRECTION BREAKOUT
WEATHER BY HOUR - OCTOBER 5, 2013
[ °C ]   °F
Local TimeTemperatureDewpointHumidityBarometerVisibilityWind DirectionWind SpeedGust SpeedPrecipitationEventsConditions
12:35 AM64.4 °F62.6 °F94 %30.10 in7.0 miCalmClear
12:55 AM64.4 °F62.6 °F94 %30.10 in10.0 miCalmClear
1:15 AM64.4 °F64.4 °F100 %30.10 in10.0 miCalmClear
1:35 AM64.4 °F64.4 °F100 %30.10 in7.0 miCalmClear
1:55 AM64.4 °F62.6 °F94 %30.11 in4.0 miCalmClear
2:15 AM64.4 °F64.4 °F100 %30.10 in10.0 miCalmClear
2:35 AM64.4 °F64.4 °F100 %30.10 in10.0 miCalmClear
2:55 AM64.4 °F62.6 °F94 %30.09 in7.0 miCalmClear
3:15 AM64.4 °F62.6 °F94 %30.09 in10.0 miCalmClear
3:35 AM64.4 °F62.6 °F94 %30.09 in10.0 miCalmClear
3:55 AM64.4 °F62.6 °F94 %30.09 in7.0 miCalmClear
4:15 AM64.4 °F62.6 °F94 %30.09 in7.0 miESE (110°)3.5 mphClear
4:35 AM64.4 °F62.6 °F94 %30.09 in10.0 miCalmClear
4:55 AM66.2 °F64.4 °F94 %30.09 in10.0 miESE (120°)4.6 mphClear
5:15 AM62.6 °F62.6 °F100 %30.10 in10.0 miCalmClear
5:35 AM64.4 °F62.6 °F94 %30.10 in10.0 miESE (120°)3.5 mphClear
5:55 AM64.4 °F62.6 °F94 %30.11 in10.0 miSE (130°)3.5 mphClear
6:15 AM66.2 °F64.4 °F94 %30.11 in10.0 miSE (130°)3.5 mphClear
6:35 AM64.4 °F60.8 °F88 %30.11 in10.0 miCalmClear
6:55 AM64.4 °F64.4 °F100 %30.10 in10.0 miCalmClear
7:15 AM68.0 °F62.6 °F83 %30.10 in10.0 miESE (120°)3.5 mphClear
7:35 AM68.0 °F62.6 °F83 %30.10 in10.0 miESE (120°)3.5 mphClear
7:55 AM69.8 °F62.6 °F78 %30.11 in10.0 miCalmClear
8:15 AM71.6 °F62.6 °F73 %30.11 in10.0 miCalmClear
8:35 AM71.6 °F62.6 °F73 %30.11 in10.0 miCalmClear
8:55 AM73.4 °F62.6 °F69 %30.11 in10.0 miSE (130°)3.5 mphClear
9:15 AM75.2 °F62.6 °F65 %30.11 in10.0 miSE (140°)3.5 mphClear
9:35 AM77.0 °F62.6 °F61 %30.11 in10.0 miSSE (150°)3.5 mphClear
9:55 AM78.8 °F60.8 °F54 %30.11 in10.0 miSSE (150°)8.1 mphClear
10:15 AM78.8 °F59.0 °F51 %30.11 in10.0 miSSE (160°)5.8 mphClear
10:35 AM80.6 °F59.0 °F48 %30.11 in10.0 miSSW (210°)5.8 mphClear
10:55 AM80.6 °F59.0 °F48 %30.11 in10.0 miSouth (170°)5.8 mphClear
11:15 AM80.6 °F60.8 °F51 %30.10 in10.0 miSSE (160°)5.8 mphClear
11:35 AM82.4 °F59.0 °F45 %30.10 in10.0 miSSE (160°)9.2 mphClear
11:55 AM82.4 °F60.8 °F48 %30.10 in10.0 miSouth (170°)10.4 mphClear
12:15 PM82.4 °F60.8 °F48 %30.09 in10.0 miSouth (180°)6.9 mphScattered Clouds
12:35 PM82.4 °F59.0 °F45 %30.08 in10.0 miSouth (180°)4.6 mphScattered Clouds
12:55 PM84.2 °F59.0 °F42 %30.07 in10.0 miSouth (170°)5.8 mphScattered Clouds
1:15 PM82.4 °F59.0 °F45 %30.06 in10.0 miSSW (200°)4.6 mphClear
1:35 PM86.0 °F59.0 °F40 %30.05 in10.0 miSE (140°)5.8 mphScattered Clouds
1:55 PM86.0 °F59.0 °F40 %30.04 in10.0 miSSE (160°)10.4 mphClear
2:15 PM82.4 °F59.0 °F45 %30.04 in10.0 miSouth (170°)6.9 mphClear
2:35 PM86.0 °F59.0 °F40 %30.03 in10.0 miSE (140°)6.9 mphClear
2:55 PM84.2 °F59.0 °F42 %30.02 in10.0 miSSE (150°)5.8 mphScattered Clouds
3:15 PM86.0 °F59.0 °F40 %30.02 in10.0 miSouth (170°)8.1 mphScattered Clouds
3:35 PM86.0 °F59.0 °F40 %30.01 in10.0 miSSE (160°)9.2 mphClear
3:55 PM84.2 °F59.0 °F42 %30.01 in10.0 miSSE (160°)9.2 mphClear
4:15 PM86.0 °F59.0 °F40 %30.00 in10.0 miSE (140°)6.9 mph16.1 mphClear
4:35 PM84.2 °F59.0 °F42 %29.99 in10.0 miSSE (150°)8.1 mphClear
4:55 PM84.2 °F59.0 °F42 %29.99 in10.0 miSSE (150°)9.2 mphClear
5:15 PM84.2 °F59.0 °F42 %29.99 in10.0 miSSE (150°)5.8 mphClear
5:35 PM82.4 °F59.0 °F45 %29.99 in10.0 miSSE (150°)9.2 mphClear
5:55 PM80.6 °F59.0 °F48 %29.99 in10.0 miSE (140°)4.6 mphClear
6:15 PM80.6 °F59.0 °F48 %29.99 in10.0 miSSE (150°)4.6 mphClear
6:35 PM78.8 °F60.8 °F54 %29.99 in10.0 miSE (140°)3.5 mphClear
6:55 PM77.0 °F60.8 °F57 %30.00 in10.0 miSE (140°)3.5 mphClear
7:15 PM73.4 °F60.8 °F65 %30.00 in10.0 miCalmClear
7:35 PM71.6 °F62.6 °F73 %30.01 in10.0 miCalmClear
7:55 PM73.4 °F62.6 °F69 %30.00 in10.0 miSE (140°)3.5 mphClear
8:15 PM73.4 °F62.6 °F69 %30.00 in10.0 miSSE (150°)5.8 mphClear
8:35 PM73.4 °F62.6 °F69 %30.01 in10.0 miSSE (160°)3.5 mphClear
8:55 PM73.4 °F62.6 °F69 %30.01 in10.0 miCalmClear
9:15 PM71.6 °F62.6 °F73 %30.01 in10.0 miCalmClear
9:35 PM71.6 °F62.6 °F73 %30.01 in10.0 miSE (130°)3.5 mphClear
9:55 PM73.4 °F60.8 °F65 %30.01 in10.0 miSE (140°)4.6 mphClear
10:15 PM71.6 °F60.8 °F69 %30.00 in10.0 miCalmClear
10:35 PM71.6 °F60.8 °F69 %30.00 in10.0 miCalmClear
10:55 PM71.6 °F60.8 °F69 %29.99 in10.0 miSE (140°)4.6 mphClear
11:15 PM71.6 °F60.8 °F69 %29.99 in10.0 miSSE (150°)4.6 mphClear
11:35 PM71.6 °F60.8 °F69 %29.98 in10.0 miSSE (150°)3.5 mphClear
11:55 PM71.6 °F60.8 °F69 %29.98 in10.0 miCalmClear
Hourly data recorded from KMDQ, located miles away from Fayetteville, Tennessee







STORIES FROM OUR PARTNERS